Temp_Advection
nan nan nan nan nan nan nan nan nan nan nan nan nan nan nan nan nan nan nan nan nan nan nan nan nan nan nan nan nan nan nan nan nan nan nan nan nan nan nan nan nan nan nan
nan 0 0 -0 -0 -0 -0 -0 0 0 -0 -0 0 0 0 0 1 0 0 -0 -0 -0 0 0 0 0 0 0 -0 -0 -0 -0 -0 0 0 -0 -0 -0 -0 0 0 -0 nan
nan 0 0 0 -0 -0 -0 -0 -0 -0 -0 -0 -0 -0 -0 0 0 0 0 0 -1 -1 1 0 -0 0 0 0 -0 -0 -0 -0 -0 -0 -0 0 0 0 -0 0 0 -0 nan
nan 0 0 0 0 -0 -0 -0 -0 -0 -0 0 0 0 0 0 0 0 0 -0 -0 -0 0 0 0 0 -0 1 0 -0 -0 -0 -0 -0 0 0 -0 0 -0 -0 0 0 nan
nan 0 0 -0 0 0 0 0 0 -0 -0 -0 0 -0 0 0 -0 0 -0 -0 -0 -0 0 0 0 -0 0 1 1 -0 -0 -0 -0 -0 0 0 0 0 -0 -0 0 0 nan
nan 0 0 0 -0 -0 0 0 -0 -0 -0 -0 -0 0 0 -0 0 0 -0 -0 0 0 0 0 0 -0 0 0 1 1 -0 -0 -0 -0 0 0 0 -0 0 0 -0 0 nan
nan 0 0 0 0 0 0 -0 -0 -0 -0 -0 -0 -0 0 0 0 0 0 -0 0 0 0 0 -0 -0 1 -0 0 0 0 -1 -1 -0 0 0 0 -0 -0 0 0 0 nan
nan -0 -0 -0 -0 -0 -0 -0 -0 -0 -0 -0 -0 -0 -0 -0 -0 -0 -0 0 0 -0 -0 -0 -0 1 1 0 1 1 -0 -1 -0 0 0 0 -0 -0 -0 0 0 0 nan
nan -0 -0 -0 -0 -0 -0 -0 -0 -0 -0 -0 -0 0 0 0 0 0 -0 -0 -0 -0 -0 -0 -0 0 0 0 0 0 -0 -0 0 0 0 -0 -0 0 -0 0 0 0 nan
nan -0 0 -0 0 0 -0 -0 -0 -0 -0 -0 -0 0 0 0 0 0 0 0 0 -0 -0 -0 -0 0 0 0 0 -0 -0 0 0 0 0 -0 0 0 0 0 0 0 nan
nan -0 -0 -0 -0 0 -0 0 -0 -0 -0 -0 0 -0 0 0 -0 0 0 0 0 0 -0 -0 0 -0 -0 0 0 -0 -0 0 0 0 0 0 0 0 0 0 -0 0 nan
nan -0 0 0 0 0 0 -0 0 0 -0 -0 -0 -0 0 -0 -0 0 0 0 0 0 0 0 0 0 -0 -0 -0 -0 0 0 0 0 0 -0 -0 0 -0 0 0 -0 nan
nan -0 -0 -0 0 -0 -0 -0 0 0 0 0 -0 0 0 -0 -0 -0 -0 0 0 0 0 0 -0 0 1 0 0 0 0 -0 -0 0 0 0 0 0 -0 0 -0 -0 nan
nan -0 0 -0 0 0 -0 0 0 0 -0 -0 0 0 -0 -0 0 0 0 0 0 0 0 0 0 -0 -0 0 0 0 0 -0 -0 0 0 0 0 0 0 -0 -0 0 nan
nan 0 -0 -0 0 0 0 0 0 0 0 0 0 0 0 0 0 0 0 0 0 -0 0 0 0 0 0 0 0 0 -0 -0 0 0 0 0 0 -0 0 0 -0 -0 nan
nan 0 0 -0 0 0 0 0 0 0 0 -0 -0 0 0 0 0 0 0 0 0 0 0 -0 -0 -0 -0 -0 0 0 0 -0 -0 -0 -0 -0 -0 -0 -0 0 -0 -0 nan
nan 0 0 0 0 0 0 0 0 0 0 0 0 0 0 0 0 0 0 0 0 0 0 0 -0 -0 0 0 -0 -0 0 0 -0 0 0 -1 -0 0 -0 0 -1 -0 nan
nan 0 0 0 0 0 0 0 0 0 0 -0 -0 0 0 0 0 0 0 0 0 0 0 0 -0 -0 -0 -0 -0 0 -0 -0 -0 -0 -0 -0 0 -0 -0 -0 -0 -0 nan
nan 0 1 1 0 0 0 0 0 0 0 0 -0 -0 0 0 0 1 0 0 0 0 -0 -0 -0 -0 -0 -0 -0 -0 -0 -1 -1 -1 -0 -0 -0 -0 -0 -0 0 -0 nan
nan 1 1 1 0 0 0 0 0 0 0 0 0 -0 -0 0 0 1 0 0 0 0 0 -0 -0 -0 -0 -0 -0 -0 -0 -1 -1 -0 -1 -0 -0 -1 -0 -1 -1 -0 nan
nan 0 1 1 1 1 0 0 0 0 0 0 0 0 0 0 -0 0 0 0 0 0 0 0 0 -0 -0 0 -0 -0 -0 -0 -1 -1 -0 -0 -0 -0 -1 -1 -1 -0 nan
nan 0 0 1 1 1 0 0 0 0 0 0 0 0 0 0 0 0 0 1 0 0 0 0 0 0 -0 -0 0 -0 -0 -1 -1 -1 -1 -1 -0 -0 -0 -0 -0 -0 nan
nan 0 0 0 1 1 0 0 1 0 0 0 0 0 0 0 0 1 1 0 0 0 0 0 0 0 0 0 0 0 0 -0 -0 -1 -1 -1 -1 -1 -1 -1 -0 -0 nan
nan 0 0 0 0 1 1 0 0 0 1 0 0 0 1 0 0 1 1 1 0 0 0 0 0 0 0 -0 -0 0 0 0 0 -0 -1 -1 -1 -1 -1 -1 -1 -1 nan
nan -0 0 0 0 0 1 1 0 0 0 1 1 1 1 0 1 1 1 1 1 0 1 0 -0 0 0 0 0 -0 -0 -0 0 0 -0 -1 -1 -1 -1 -1 -1 -1 nan
nan nan nan nan nan nan nan nan nan nan nan nan nan nan nan nan nan nan nan nan nan nan nan nan nan nan nan nan nan nan nan nan nan nan nan nan nan nan nan nan nan nan nan
Wind_Speed
10 5 7 7 8 8 6 7 8 7 7 8 8 10 10 10 13 15 14 12 5 2 6 7 6 7 7 9 9 9 9 11 11 13 10 6 4 5 6 7 11 9 6
7 6 7 7 9 9 7 8 9 7 8 8 7 8 9 11 13 13 10 4 2 1 12 6 11 13 9 10 10 11 12 11 11 12 10 9 7 6 6 7 9 7 7
5 5 8 8 8 9 9 7 8 8 8 9 6 4 4 6 6 7 8 7 10 13 19 11 4 11 12 8 10 14 13 11 8 7 7 7 6 2 3 6 9 8 10
6 5 5 8 8 9 8 8 8 7 7 6 2 2 4 7 8 9 10 13 14 13 15 14 12 19 17 14 12 15 15 12 9 6 3 2 4 5 4 5 11 11 12
8 8 9 11 12 12 10 9 7 5 3 1 0 2 3 7 10 12 13 15 18 19 17 17 16 14 16 21 18 12 15 13 11 9 5 4 5 5 8 7 13 16 14
12 11 13 12 12 12 10 9 8 7 5 3 0 2 4 6 8 9 10 12 16 16 14 14 13 10 11 14 19 24 16 13 11 11 7 6 6 12 15 10 11 15 16
10 11 10 9 9 9 9 9 8 7 5 4 3 3 4 5 6 7 6 5 9 11 12 15 17 14 26 18 16 17 18 19 16 11 12 8 11 18 19 18 12 15 17
9 9 8 9 10 9 10 10 8 6 5 3 2 2 2 5 6 3 3 5 9 10 9 11 12 14 13 13 14 20 18 20 18 13 16 16 12 20 17 15 15 16 16
8 9 10 11 10 11 11 12 10 6 4 4 2 1 1 2 4 4 4 4 6 8 8 9 10 8 8 7 8 11 14 16 18 17 20 18 12 17 19 16 14 16 18
10 9 5 5 7 11 11 12 12 8 7 6 4 1 2 2 4 5 5 5 3 5 5 6 8 10 11 13 14 12 11 12 15 17 20 19 17 16 17 16 16 16 20
7 6 9 4 6 9 2 3 7 3 5 4 5 3 2 2 2 5 2 5 6 5 6 6 9 12 14 17 18 17 16 16 14 13 16 22 18 20 19 19 15 17 19
8 9 7 4 6 4 1 2 3 3 5 6 2 2 3 2 6 5 4 4 6 7 9 11 13 15 13 18 19 20 22 19 18 13 10 17 22 22 23 23 19 18 21
4 8 9 10 8 5 5 5 5 5 8 5 5 5 4 6 8 6 6 4 5 9 10 10 10 13 21 22 19 17 20 16 17 19 16 18 18 19 22 23 21 19 23
4 11 12 10 2 4 7 8 10 10 9 8 6 8 8 8 8 9 8 8 7 8 9 10 10 7 8 10 15 28 25 23 16 21 21 20 24 23 24 24 26 23 24
8 11 14 10 4 5 9 10 10 12 10 11 11 11 11 10 8 9 9 9 9 10 11 11 12 13 13 13 12 13 14 20 26 23 27 24 28 31 33 31 31 30 27
14 13 16 14 9 8 10 11 13 16 15 15 15 12 13 13 11 10 11 11 12 9 10 11 12 12 13 14 14 16 16 17 20 19 20 27 35 29 32 33 31 30 30
12 14 17 16 13 11 13 13 13 15 16 17 16 14 14 13 12 14 13 13 13 12 11 9 10 11 12 13 14 17 20 22 23 23 23 23 26 30 28 27 27 29 34
12 15 15 16 14 14 14 14 13 15 16 16 17 15 13 14 13 13 13 13 12 12 11 10 10 10 12 13 15 15 17 20 22 26 28 27 26 27 28 28 28 24 30
17 16 15 16 15 17 16 14 13 14 17 16 17 19 17 16 16 14 13 12 9 8 9 11 12 15 15 15 15 16 18 21 22 23 26 27 27 31 30 29 27 27 25
17 15 15 16 17 19 19 17 17 19 20 17 19 20 21 19 17 15 13 11 11 7 6 10 15 17 18 18 19 19 19 22 21 18 21 22 22 24 29 33 30 31 30
13 14 16 18 20 21 20 21 22 23 25 21 23 24 21 21 19 19 14 10 9 8 10 12 14 15 17 21 22 23 26 27 18 21 13 9 11 16 19 23 29 31 31
10 15 17 18 20 20 23 25 24 23 21 23 22 24 23 25 24 22 22 17 17 16 16 15 13 13 15 16 19 23 22 35 30 18 23 24 22 21 19 18 17 21 30
12 14 17 17 18 22 24 25 27 22 23 26 25 25 28 30 29 27 24 18 17 18 18 16 13 15 17 15 15 21 25 23 34 34 31 33 31 29 26 23 23 24 25
8 10 13 16 19 20 23 27 29 31 31 31 31 31 28 28 29 28 24 22 19 17 12 12 15 18 17 22 25 26 29 31 30 35 32 30 32 32 29 21 20 22 22
8 8 11 15 19 25 24 27 30 31 33 36 33 26 27 25 23 29 24 25 22 18 20 24 26 24 26 28 31 30 29 30 34 36 39 35 34 35 33 29 30 29 24
13 14 16 17 21 24 26 29 31 34 37 36 37 35 32 28 21 24 26 25 23 23 21 19 17 21 26 29 33 34 35 37 36 34 35 34 35 35 34 37 34 28 29
Wind_Direction
42 78 98 111 106 101 103 97 106 114 112 115 116 131 139 157 169 169 171 181 180 255 348 289 252 218 226 245 256 264 261 264 258 261 266 248 208 180 180 184 174 156 168
46 66 96 112 121 125 124 114 106 107 112 114 128 133 153 166 175 174 179 238 329 59 328 219 295 274 237 243 253 253 257 257 252 253 255 239 226 226 226 202 172 167 169
136 89 87 103 125 131 135 137 108 100 101 104 95 113 157 182 187 190 180 158 326 303 260 246 261 263 260 234 250 253 251 248 258 260 271 248 200 194 286 230 197 182 195
103 135 81 116 125 131 140 135 126 122 121 124 42 213 206 206 214 211 219 266 286 283 252 259 251 245 240 273 248 254 254 254 258 253 281 161 295 248 311 264 220 194 203
108 120 119 117 120 112 111 101 98 96 103 138 354 118 201 222 229 236 237 259 265 270 253 263 257 253 230 218 310 260 259 259 264 250 225 217 263 252 287 299 235 222 217
105 109 110 105 99 98 93 82 67 64 59 49 25 207 238 242 243 247 259 258 250 253 257 264 256 259 241 262 299 283 262 258 263 254 230 223 244 246 267 267 247 230 228
113 106 98 88 82 79 75 66 61 62 66 47 18 353 308 273 255 257 270 275 255 253 262 262 256 242 246 268 253 228 224 246 239 245 206 214 240 258 275 264 249 228 223
85 91 64 43 36 42 41 40 39 49 72 68 6 14 312 304 325 344 276 263 259 271 271 266 268 253 234 209 233 228 247 251 243 225 206 227 264 244 261 256 249 229 217
56 58 36 23 3 3 20 23 25 37 50 83 107 168 207 299 320 327 314 305 290 288 283 285 271 229 230 226 231 241 250 243 240 222 216 230 242 230 251 248 246 229 218
134 111 74 65 338 324 358 359 6 26 47 57 79 168 205 240 265 286 312 310 282 278 286 294 273 262 250 238 233 233 240 245 240 233 219 222 232 235 237 243 240 238 229
186 232 186 197 276 305 5 318 334 32 50 63 96 110 154 196 271 262 301 299 300 296 292 281 269 260 260 259 261 254 238 224 229 223 230 230 230 236 245 249 251 248 230
207 271 277 290 280 261 209 240 271 269 307 310 312 166 219 251 320 312 318 281 269 280 278 287 285 273 266 273 271 273 267 246 242 224 220 240 243 243 246 251 252 251 239
228 285 284 320 332 169 176 229 282 289 293 252 250 236 241 249 249 255 267 262 240 254 276 261 269 272 263 265 264 269 260 254 235 229 230 234 235 246 250 251 253 252 247
255 277 296 321 309 195 221 215 231 245 259 258 237 222 220 232 238 241 249 251 243 236 243 256 269 284 282 288 281 250 250 262 258 245 233 241 242 242 243 250 251 247 249
238 279 287 301 248 211 221 232 227 246 247 237 235 228 237 247 247 244 242 248 253 260 253 248 260 269 276 280 289 292 281 254 262 264 249 246 250 250 252 254 254 252 252
263 263 271 285 258 248 245 239 239 246 246 242 247 245 238 246 253 256 263 263 262 263 279 280 282 278 281 281 278 282 278 280 276 274 269 259 248 254 256 257 255 251 246
259 258 267 285 274 269 262 268 261 255 248 250 254 259 252 250 246 248 251 255 262 276 275 284 287 286 288 287 286 276 278 281 279 277 278 273 266 258 257 262 266 264 251
238 244 265 277 278 278 275 272 265 268 270 267 267 270 265 261 254 241 246 253 259 263 273 291 300 305 304 301 294 289 281 278 276 275 275 275 273 269 267 271 271 271 254
233 242 255 265 255 267 278 261 262 256 262 272 270 274 274 262 251 247 252 264 277 279 290 300 313 318 316 314 312 304 298 298 296 288 278 272 274 274 273 270 270 271 266
229 243 252 256 260 270 267 257 254 253 254 262 252 257 270 267 256 251 244 264 280 287 285 301 312 321 322 324 314 309 313 307 307 313 300 284 286 279 273 272 275 272 266
237 250 268 270 272 274 269 264 265 257 265 265 250 261 260 257 258 256 246 236 252 258 256 280 301 305 311 318 320 314 308 310 299 305 302 307 304 291 283 276 274 272 265
287 299 303 295 285 280 273 277 277 278 270 271 268 260 251 252 258 252 254 247 245 247 254 267 277 284 295 305 307 308 319 309 314 301 287 293 292 295 296 280 283 273 263
290 291 294 297 295 279 273 275 274 264 260 261 258 250 249 256 258 257 249 242 243 255 261 271 275 285 292 285 285 299 308 301 306 305 302 298 294 292 293 294 286 287 292
312 307 299 299 295 293 274 271 267 274 271 263 265 263 262 264 266 260 253 243 247 249 242 255 265 274 270 282 293 290 287 289 297 304 299 299 299 295 295 295 304 303 294
358 344 322 308 312 315 300 277 275 273 277 280 268 260 251 260 266 247 241 240 237 235 253 271 254 263 275 292 291 289 286 284 283 287 295 295 293 294 296 294 283 283 287
314 323 320 312 305 304 298 292 287 278 275 271 268 256 252 259 247 227 227 232 243 260 250 246 271 282 288 292 286 284 284 287 287 288 288 289 290 290 288 283 280 280 282
Height
1536 1537 1537 1538 1536 1537 1538 1539 1537 1537 1539 1539 1540 1543 1545 1546 1547 1548 1545 1548 1549 1556 1559 1561 1562 1562 1564 1566 1566 1568 1568 1568 1567 1568 1568 1569 1568 1566 1565 1562 1564 1567 1567
1538 1538 1538 1538 1537 1538 1540 1539 1538 1539 1538 1538 1541 1543 1544 1544 1546 1546 1548 1551 1549 1553 1555 1554 1559 1561 1560 1562 1565 1567 1568 1568 1567 1569 1568 1568 1568 1566 1564 1562 1564 1564 1566
1537 1539 1537 1539 1541 1539 1540 1541 1539 1539 1540 1538 1543 1543 1543 1544 1544 1545 1546 1549 1552 1548 1547 1549 1548 1555 1558 1560 1562 1564 1566 1566 1565 1566 1565 1565 1565 1564 1562 1560 1560 1561 1563
1538 1540 1540 1541 1541 1541 1543 1538 1539 1541 1541 1541 1542 1543 1543 1543 1544 1547 1547 1548 1547 1546 1544 1545 1545 1550 1552 1551 1562 1564 1564 1563 1562 1562 1563 1562 1561 1561 1560 1559 1559 1560 1562
1541 1540 1541 1542 1542 1539 1541 1538 1540 1540 1540 1541 1542 1543 1542 1543 1542 1546 1546 1545 1544 1543 1542 1544 1546 1547 1550 1548 1552 1562 1564 1560 1559 1560 1562 1561 1559 1560 1560 1560 1560 1560 1561
1539 1538 1539 1543 1542 1540 1541 1539 1540 1539 1541 1541 1542 1542 1542 1542 1543 1544 1545 1544 1542 1542 1543 1544 1545 1546 1546 1548 1544 1558 1560 1558 1555 1558 1560 1558 1558 1559 1559 1560 1560 1560 1559
1539 1541 1542 1543 1541 1542 1540 1541 1541 1541 1541 1542 1541 1542 1541 1542 1542 1543 1544 1542 1542 1543 1542 1542 1544 1545 1547 1547 1549 1552 1547 1553 1551 1553 1556 1556 1556 1558 1558 1558 1558 1559 1558
1541 1542 1543 1542 1541 1540 1540 1540 1541 1541 1542 1542 1542 1542 1542 1541 1541 1541 1541 1542 1542 1542 1542 1541 1540 1540 1542 1544 1546 1548 1549 1550 1548 1549 1552 1552 1552 1555 1556 1555 1556 1556 1557
1541 1541 1541 1541 1539 1539 1539 1540 1540 1540 1541 1542 1542 1542 1541 1541 1541 1541 1541 1541 1542 1542 1542 1541 1539 1538 1538 1538 1542 1543 1546 1545 1546 1547 1549 1549 1549 1551 1552 1553 1553 1553 1554
1542 1542 1540 1540 1539 1538 1538 1538 1539 1540 1540 1541 1541 1541 1541 1541 1540 1540 1539 1539 1541 1542 1542 1541 1540 1539 1538 1538 1540 1540 1541 1542 1542 1544 1545 1545 1547 1547 1548 1549 1551 1552 1552
1539 1540 1540 1538 1536 1536 1536 1536 1536 1537 1538 1539 1539 1540 1539 1539 1539 1539 1539 1539 1539 1539 1538 1539 1538 1538 1538 1538 1538 1538 1537 1537 1538 1539 1541 1543 1542 1544 1545 1546 1547 1548 1549
1535 1537 1538 1539 1539 1539 1536 1536 1536 1536 1536 1536 1536 1537 1536 1536 1536 1538 1537 1537 1537 1537 1537 1537 1537 1537 1536 1535 1535 1534 1535 1536 1536 1535 1536 1539 1540 1540 1543 1544 1544 1545 1546
1536 1537 1537 1538 1537 1536 1537 1537 1537 1537 1536 1536 1536 1536 1536 1535 1534 1534 1535 1535 1535 1536 1536 1536 1536 1534 1533 1532 1532 1530 1531 1532 1532 1532 1533 1535 1535 1536 1538 1540 1540 1540 1542
1534 1535 1535 1536 1535 1535 1535 1535 1535 1536 1535 1534 1535 1535 1535 1535 1534 1533 1533 1532 1532 1532 1532 1533 1533 1533 1532 1530 1528 1528 1528 1529 1529 1529 1529 1531 1532 1532 1532 1535 1535 1534 1537
1534 1534 1534 1534 1534 1534 1534 1533 1534 1533 1534 1533 1532 1532 1532 1531 1531 1530 1531 1530 1530 1529 1529 1529 1528 1528 1529 1529 1527 1525 1523 1523 1523 1523 1524 1526 1528 1528 1529 1530 1531 1530 1531
1532 1532 1532 1532 1532 1532 1532 1532 1532 1532 1532 1531 1530 1531 1531 1530 1530 1529 1528 1528 1527 1528 1526 1525 1525 1524 1524 1522 1524 1525 1523 1521 1520 1519 1519 1520 1522 1523 1523 1524 1525 1524 1524
1529 1530 1531 1531 1531 1531 1530 1530 1530 1529 1528 1528 1528 1528 1528 1528 1527 1526 1526 1525 1525 1525 1525 1524 1523 1521 1520 1519 1518 1517 1517 1516 1516 1516 1516 1515 1516 1516 1516 1518 1517 1516 1517
1524 1526 1527 1529 1529 1529 1528 1528 1527 1526 1526 1525 1526 1526 1526 1526 1525 1523 1523 1522 1522 1521 1521 1521 1520 1520 1519 1517 1515 1513 1513 1512 1512 1512 1510 1510 1509 1510 1508 1507 1507 1508 1509
1522 1523 1525 1526 1527 1528 1527 1526 1526 1525 1524 1523 1521 1522 1522 1522 1521 1520 1519 1520 1519 1518 1517 1517 1516 1516 1515 1514 1512 1510 1508 1507 1506 1505 1505 1504 1503 1503 1502 1503 1501 1502 1502
1521 1522 1523 1523 1524 1525 1524 1524 1524 1523 1522 1521 1518 1517 1517 1518 1518 1517 1516 1516 1516 1515 1513 1513 1512 1511 1510 1508 1507 1506 1504 1502 1501 1500 1498 1496 1496 1497 1496 1495 1494 1494 1495
1520 1521 1522 1523 1523 1522 1521 1520 1520 1519 1519 1518 1517 1515 1514 1514 1515 1515 1515 1514 1513 1512 1511 1510 1509 1508 1506 1505 1503 1501 1499 1499 1498 1497 1493 1491 1491 1491 1490 1487 1488 1488 1489
1521 1521 1521 1520 1519 1518 1518 1516 1516 1515 1513 1512 1512 1511 1510 1510 1509 1509 1511 1510 1509 1508 1508 1508 1506 1505 1504 1502 1500 1498 1494 1491 1491 1491 1488 1486 1485 1486 1485 1484 1482 1481 1482
1518 1518 1517 1516 1515 1514 1513 1512 1511 1509 1509 1508 1507 1507 1506 1505 1505 1504 1504 1505 1506 1505 1504 1503 1504 1503 1502 1501 1499 1498 1492 1488 1485 1484 1482 1482 1482 1480 1480 1480 1478 1478 1475
1514 1514 1514 1513 1512 1510 1509 1507 1507 1505 1503 1502 1502 1502 1501 1500 1500 1500 1500 1501 1501 1500 1499 1499 1498 1498 1497 1497 1495 1495 1492 1489 1484 1474 1476 1476 1476 1474 1474 1474 1473 1473 1471
1511 1511 1511 1510 1509 1508 1507 1504 1502 1500 1499 1498 1497 1497 1496 1495 1494 1495 1495 1495 1494 1493 1493 1494 1494 1493 1493 1491 1491 1488 1486 1484 1481 1477 1466 1467 1468 1468 1467 1467 1468 1467 1465
1509 1507 1507 1507 1506 1505 1502 1500 1497 1493 1491 1490 1489 1488 1489 1487 1487 1487 1487 1489 1488 1488 1488 1488 1487 1487 1487 1487 1485 1483 1480 1477 1474 1471 1466 1463 1460 1459 1459 1460 1459 1459 1459